Tracking 30509 objects as of 18-May-2025
HD Live streaming from Space Station
objects crossing your sky now

STARLINK-6310

Track STARLINK-6310 now!
10-day predictions
STARLINK-6310 is classified as:


NORAD ID: 56533
Int'l Code: 2023-065AG
Perigee: 565.8 km
Apogee: 566.7 km
Inclination: 43.0 °
Period: 95.8 minutes
Semi major axis: 6937 km
RCS: Unknown
Launch date: May 14, 2023
Source: United States (US)
Launch site: AIR FORCE EASTERN TEST RANGE (AFETR)
Your satellite tracking list
Your tracking list is empty




NASA's NSSDC Master Catalog

Two Line Element Set (TLE):
1 56533U 23065AG  25137.93600077  .00000406  00000-0  45084-4 0  9993
2 56533  43.0066   4.5431 0000627 261.3393  98.7379 15.02536259112287
Source of the keplerian elements: AFSPC